Flag for Guadeloupe Weather past 2 weeks in Basse-Terre, Guadeloupe

Now
81 °F

Clear.


Feels Like: 85 °F
Forecast: 76 / 83 °F
Wind: 6 mph from East

Location: Le Raizet - Guadeloupe

Current Time: May 29, 2015 at 9:20:30 PM

Latest Report: May 29, 2015 at 9:00 PM


Visibility: N/A

Pressure: 29.98 "Hg

Humidity: 79%

Dew point: 73 °F

Location of Basse-TerreLocation

Historic Weather in Basse-Terre — Graph

°F

Basse-Terre temperature yesterday

Maximum temperature yesterday: 88 °F (at 11:30 AM)
Minimum temperature yesterday: 72 °F (at 12:30 AM)
Average temperature yesterday: 78 °F

Past Weeks' High & Low Weather Summary

 TemperatureHumidityPressure
High90 °F (May 20, 1:30 PM)94% (May 18, 6:00 AM)30.12 "Hg (May 18, 6:00 AM)
Low70 °F (May 27, 3:30 AM)40% (May 16, 1:00 PM)29.92 "Hg (May 27, 2:30 AM)
Average80 °F73%30.01 "Hg
* Reported May 14 8:00 PM — May 29 8:00 PM, Basse-Terre, Weather by CustomWeather, © 2015

Note: Actual official high and low records may vary slightly from our data, if they occured in-between our weather recording intervals... More about our weather records

Advertising

Basse-Terre weather history for previous 24 hours

 ConditionsComfort  
Time TempWeatherWind HumidityBarometerVisibility
8:00 PM
Fri, May 29
81 °FPassing clouds.8 mph79%29.98 "HgN/A
7:30 PM81 °FPartly cloudy.8 mph79%29.98 "HgN/A
7:00 PM82 °FOvercast.9 mph74%29.95 "HgN/A
6:30 PM82 °FMore clouds than sun.13 mph74%29.95 "HgN/A
6:00 PM82 °FMore clouds than sun.13 mph70%29.95 "HgN/A
5:30 PM84 °FScattered clouds.13 mph66%29.95 "HgN/A
5:00 PM84 °FScattered clouds.15 mph66%29.92 "HgN/A
4:30 PM86 °FScattered clouds.15 mph62%29.92 "HgN/A
4:00 PM86 °FBroken clouds.13 mph62%29.92 "HgN/A
3:30 PM86 °FPartly sunny.15 mph62%29.92 "HgN/A
3:00 PM88 °FScattered clouds.15 mph59%29.95 "HgN/A
2:30 PM86 °FScattered clouds.16 mph59%29.95 "HgN/A
2:00 PM88 °FPartly sunny.15 mph55%29.95 "HgN/A
1:30 PM88 °FScattered clouds.15 mph59%29.95 "HgN/A
1:00 PM88 °FBroken clouds.16 mph59%29.98 "HgN/A
12:30 PM88 °FScattered clouds.14 mph59%29.98 "HgN/A
12:00 PM88 °FPartly sunny.14 mph62%29.98 "HgN/A
11:30 AM88 °FScattered clouds.14 mph59%29.98 "HgN/A
11:00 AM86 °FPartly sunny.14 mph66%29.98 "HgN/A
10:30 AM86 °FPartly sunny.16 mph66%29.98 "HgN/A
10:00 AM86 °FPartly sunny.16 mph66%29.98 "HgN/A
9:30 AM84 °FPartly sunny.14 mph70%29.98 "HgN/A
9:00 AM84 °FMostly cloudy.14 mph70%30.01 "HgN/A
8:30 AM82 °FMostly cloudy.10 mph79%29.98 "HgN/A
8:00 AM82 °FMore clouds than sun.8 mph79%29.98 "HgN/A
7:30 AM81 °FPartly sunny.6 mph84%29.98 "HgN/A
7:00 AM79 °FClear.3 mph89%29.98 "HgN/A
6:30 AM77 °FClear.2 mph89%29.98 "HgN/A
6:00 AM75 °FClear.2 mph94%29.95 "HgN/A
5:30 AM75 °FClear.2 mph94%29.95 "HgN/A
5:00 AM77 °FClear.5 mph94%29.95 "HgN/A
4:30 AM75 °FMostly cloudy.2 mph94%29.95 "HgN/A
4:00 AM75 °FPassing clouds.2 mph94%29.95 "HgN/A
3:30 AM75 °FClear.3 mph94%29.95 "HgN/A
3:00 AM77 °FPassing clouds.1 mph94%29.95 "HgN/A
2:30 AM77 °FClear.No wind89%29.95 "HgN/A
2:00 AM77 °FClear.No wind89%29.95 "HgN/A
1:30 AM77 °FClear.No wind89%29.95 "HgN/A
1:00 AM77 °FClear.3 mph89%29.98 "HgN/A
12:30 AM79 °FLight rain. Clear.6 mph89%29.98 "HgN/A
12:00 AM77 °FLight rain. Mostly cloudy.5 mph94%30.01 "HgN/A
11:30 PM
Thu, May 28
77 °FLight rain. Passing clouds.3 mph94%30.01 "HgN/A
11:00 PM77 °FOvercast.2 mph89%30.01 "HgN/A
10:30 PM77 °FMostly cloudy.1 mph89%30.01 "HgN/A
10:00 PM77 °FPassing clouds.3 mph89%30.01 "HgN/A
9:30 PM77 °FPassing clouds.3 mph89%30.01 "HgN/A
9:00 PM77 °FMostly cloudy.3 mph89%30.01 "HgN/A
Weather by CustomWeather, © 2015

See weather overviewHow to use our weather pages